User: anonymous   Login
Location: Unspecified
(0.0000°N, 0.0000°E)
Time: 18:59:03
(UTC+02:00)
Language:

Cosmos 1898 Rocket - Orbit

View from above orbital plane
View from above orbital plane
View from above satellite
View from above satellite

Ground track
Ground track

The orbit data is extracted from the following two-line orbital elements,

1 18586U 87098B   17142.97154927 +.00000004 +00000-0 +10141-4 0  9994
2 18586 074.0065 341.7683 0020380 042.6169 063.0306 14.36780220543435
Epoch (UTC): 22 May 2017 23:19:01
Eccentricity: 0.0020380
inclination: 74.0065°
perigee height: 754 km
apogee height: 784 km
right ascension of ascending node: 341.7683°
argument of perigee: 42.6169°
revolutions per day: 14.36780220
mean anomaly at epoch: 63.0306°
orbit number at epoch: 54343

The dashed part of the orbit path shows where the satellite is in the earth's shadow,  

DLR